Hourly Data Report for October 12, 2016

All times are specified in Local Standard Time (LST). Add 1 hour to adjust for Daylight Saving Time where and when it is observed.

CORAL HARBOUR A
NUNAVUT

64°11'36.000" N
83°21'34.000" W
62.20 m
2301002
71915
YZS

Download Data

Hourly Data (October 2016)
Hourly Data Report for October 12, 2016
Temp Definition
°C
Dew Point Temp Definition
°C
Rel Hum Definition
%
Wind Dir Definition
10's deg

Wind Spd Definition
km/h
Visibility Definition
km
Stn Press Definition
kPa
Hmdx Definition


Wind Chill Definition


Weather Definition


TIME
00:00 Legend Double Dagger -4.8 -5.6 94 10 12 0.8 100.56   -10 Moderate Snow
01:00 Legend Double Dagger -4.4 -5.2 94 12 10 0.8 100.56   -9 Moderate Snow
02:00 Legend Double Dagger -4.8 -5.8 93 9 17 0.8 100.52   -11 Moderate Snow
03:00 Legend Double Dagger -3.9 -4.9 93 12 21 2.4 100.49   -10 Snow
04:00 Legend Double Dagger -4.2 -5.0 94 10 21 2.4 100.44   -11 Snow
05:00 Legend Double Dagger -4.2 -5.2 93 11 27 12.9 100.39   -12 Snow
06:00 Legend Double Dagger -4.7 -5.8 92 10 22 16.1 100.36   -12 Snow
07:00 Legend Double Dagger -4.9 -6.0 92 10 23 6.4 100.33   -12 Snow
08:00 Legend Double Dagger -4.5 -5.3 94 10 22 1.2 100.30   -11 Snow
09:00 Legend Double Dagger -4.0 -4.7 95 10 22 0.6 100.24   -11 Moderate Snow
10:00 Legend Double Dagger -3.3 -4.1 94 9 27 0.8 100.18   -10 Moderate Snow
11:00 Legend Double Dagger -0.6 -3.3 82 15 26 24.1 100.14   -7 Snow
12:00 Legend Double Dagger -1.0 -2.6 89 13 23 24.1 100.10   -7 Snow
13:00 Legend Double Dagger -2.2 -3.5 91 10 22 24.1 100.07   -8 Mostly Cloudy
14:00 Legend Double Dagger -1.5 -2.6 92 11 21 24.1 100.01   -7 LegendNANA
15:00 Legend Double Dagger -1.9 -3.0 92 10 23 24.1 99.97   -8 LegendNANA
16:00 Legend Double Dagger -3.0 -3.8 94 9 24 24.1 99.92   -10 Mostly Cloudy
17:00 Legend Double Dagger -5.0 -5.8 94 8 21 24.1 99.89   -12 LegendNANA
18:00 Legend Double Dagger -4.4 -5.1 95 9 21 24.1 99.86   -11 LegendNANA
19:00 Legend Double Dagger -4.2 -4.9 95 9 25 24.1 99.82   -11 Cloudy
20:00 Legend Double Dagger -2.8 -3.4 96 10 26 16.1 99.76   -10 Snow
21:00 Legend Double Dagger -3.1 -3.8 95 10 23 19.3 99.71   -10 Snow
22:00 Legend Double Dagger -3.2 -3.9 95 10 22 19.3 99.67   -10 Cloudy
23:00 Legend Double Dagger -3.0 -3.7 95 10 25 24.1 99.64   -10 Snow

Notes on Data Quality.

Legend

  • E = Estimated
  • M = Missing
  • NA = Not Available
  • ‡ = Partner data that is not subject to review by the National Climate Archives
Date modified: